| time (UTC) | temp F | wind direction | speed MPH | gust MPH | rain 1hr in | rain 24hr in | rain mn in | humidity % | barometer mb |
| 20260504044529 | 81 | 256 | 2.0 | 8.0 | 0.00 | 0.00 | 0.00 | 23 | 1006.7 |
| 20260504043024 | 82 | 179 | 2.0 | 9.0 | 0.00 | 0.00 | 0.00 | 23 | 1006.6 |
| 20260504041524 | 82 | 287 | 3.0 | 10.0 | 0.00 | 0.00 | 0.00 | 22 | 1006.1 |
| 20260504040022 | 82 | 269 | 2.0 | 12.0 | 0.00 | 0.00 | 0.00 | 22 | 1006.0 |
| 20260504034519 | 83 | 251 | 4.0 | 12.0 | 0.00 | 0.00 | 0.00 | 20 | 1005.7 |
| 20260504033017 | 84 | 289 | 3.0 | 12.0 | 0.00 | 0.00 | 0.00 | 19 | 1005.0 |
| 20260504031555 | 84 | 264 | 4.0 | 10.0 | 0.00 | 0.00 | 0.00 | 18 | 1004.9 |
| 20260504030054 | 85 | 253 | 3.0 | 11.0 | 0.00 | 0.00 | 0.00 | 17 | 1004.6 |
| 20260504024603 | 85 | 292 | 4.0 | 14.0 | 0.00 | 0.00 | 0.00 | 17 | 1004.1 |
| 20260504023045 | 86 | 247 | 6.0 | 18.0 | 0.00 | 0.00 | 0.00 | 16 | 1003.7 |
| 20260504021542 | 87 | 284 | 4.0 | 14.0 | 0.00 | 0.00 | 0.00 | 16 | 1003.4 |
| 20260504020042 | 89 | 300 | 7.0 | 16.0 | 0.00 | 0.00 | 0.00 | 15 | 1003.0 |
| 20260504014530 | 90 | 296 | 3.0 | 11.0 | 0.00 | 0.00 | 0.00 | 14 | 1002.8 |
| 20260504013035 | 91 | 200 | 4.0 | 10.0 | 0.00 | 0.00 | 0.00 | 14 | 1002.6 |
| 20260504011529 | 92 | 297 | 1.0 | 9.0 | 0.00 | 0.00 | 0.00 | 14 | 1002.6 |
| 20260504010028 | 94 | 281 | 5.0 | 11.0 | 0.00 | 0.00 | 0.00 | 12 | 1002.6 |
| 20260504004559 | 94 | 293 | 2.0 | 9.0 | 0.00 | 0.00 | 0.00 | 13 | 1002.8 |
| 20260504003058 | 94 | 290 | 4.0 | 16.0 | 0.00 | 0.00 | 0.00 | 13 | 1002.6 |
| 20260504001552 | 94 | 267 | 6.0 | 14.0 | 0.00 | 0.00 | 0.00 | 13 | 1002.5 |
| 20260504000123 | 95 | 303 | 7.0 | 14.0 | 0.00 | 0.00 | 0.00 | 13 | 1002.6 |
| 20260503234557 | 96 | 280 | 7.0 | 14.0 | 0.00 | 0.00 | 0.00 | 12 | 1002.7 |
| 20260503233049 | 96 | 244 | 3.0 | 9.0 | 0.00 | 0.00 | 0.00 | 13 | 1002.7 |
| 20260503231545 | 96 | 195 | 3.0 | 8.0 | 0.00 | 0.00 | 0.00 | 13 | 1002.9 |
| 20260503230042 | 96 | 181 | 2.0 | 8.0 | 0.00 | 0.00 | 0.00 | 13 | 1003.2 |
| 20260503224539 | 96 | 273 | 2.0 | 10.0 | 0.00 | 0.00 | 0.00 | 14 | 1003.5 |
| 20260503223040 | 96 | 247 | 2.0 | 10.0 | 0.00 | 0.00 | 0.00 | 14 | 1003.8 |
| 20260503221543 | 96 | 214 | 4.0 | 10.0 | 0.00 | 0.00 | 0.00 | 15 | 1004.1 |
| 20260503220030 | 95 | 251 | 3.0 | 12.0 | 0.00 | 0.00 | 0.00 | 14 | 1004.3 |
| 20260503214527 | 95 | 139 | 2.0 | 9.0 | 0.00 | 0.00 | 0.00 | 15 | 1004.7 |
| 20260503213025 | 95 | 288 | 2.0 | 8.0 | 0.00 | 0.00 | 0.00 | 16 | 1004.9 |
| 20260503211519 | 95 | 94 | 3.0 | 8.0 | 0.00 | 0.00 | 0.00 | 15 | 1005.1 |
| 20260503210017 | 95 | 141 | 2.0 | 10.0 | 0.00 | 0.00 | 0.00 | 15 | 1005.5 |
| 20260503204515 | 95 | 283 | 3.0 | 10.0 | 0.00 | 0.00 | 0.00 | 17 | 1005.7 |
| 20260503203024 | 94 | 140 | 3.0 | 12.0 | 0.00 | 0.00 | 0.00 | 17 | 1005.8 |
| 20260503201511 | 94 | 302 | 5.0 | 11.0 | 0.00 | 0.00 | 0.00 | 16 | 1005.9 |
| 20260503200007 | 94 | 261 | 3.0 | 9.0 | 0.00 | 0.00 | 0.00 | 17 | 1006.2 |
| 20260503194507 | 92 | 117 | 1.0 | 9.0 | 0.00 | 0.00 | 0.00 | 21 | 1006.3 |
| 20260503193006 | 92 | 154 | 4.0 | 12.0 | 0.00 | 0.00 | 0.00 | 20 | 1006.5 |
| 20260503191609 | 93 | 258 | 3.0 | 10.0 | 0.00 | 0.00 | 0.00 | 21 | 1007.0 |
| 20260503190055 | 91 | 200 | 1.0 | 7.0 | 0.00 | 0.00 | 0.00 | 22 | 1007.1 |
| 20260503184551 | 90 | 137 | 2.0 | 12.0 | 0.00 | 0.00 | 0.00 | 23 | 1007.5 |
| 20260503183048 | 90 | 184 | 3.0 | 9.0 | 0.00 | 0.00 | 0.00 | 20 | 1007.7 |
| 20260503181556 | 90 | 213 | 3.0 | 10.0 | 0.00 | 0.00 | 0.00 | 20 | 1007.9 |
| 20260503180042 | 88 | 130 | 5.0 | 11.0 | 0.00 | 0.00 | 0.00 | 20 | 1008.0 |
| 20260503174542 | 88 | 98 | 4.0 | 10.0 | 0.00 | 0.00 | 0.00 | 21 | 1008.2 |
| 20260503173053 | 88 | 141 | 4.0 | 9.0 | 0.00 | 0.00 | 0.00 | 22 | 1008.3 |
| 20260503171542 | 87 | 108 | 3.0 | 11.0 | 0.00 | 0.00 | 0.00 | 24 | 1008.3 |
| 20260503081526 | 76 | 94 | 0.0 | 4.0 | 0.00 | 0.00 | 0.00 | 23 | 1007.9 |
| 20260503071514 | 77 | 46 | 1.0 | 3.0 | 0.00 | 0.00 | 0.00 | 22 | 1008.0 |